Starlink 1153

operational
NORAD ID: 45080 Int'l Des: 2020-006 Owner: SPXS Country: US Constellation: starlink
LEOCIRCULARSTARLINK_TYPE

About Starlink 1153

Description loading...

Live Position

Loading 3D Globe...

Upcoming Passes

Altitude History

Altitude vs Time

uPlot chart will show altitude changes over time

Two-Line Element Set

1 45080U 20006AN 26036.32925627 -.00000416 00000-0 -20837-5 0 9996
2 45080 53.1580 47.8890 0001299 91.4998 268.6151 15.29347613331926
Epoch: Feb 5, 2026 • Age: 4 hours

Current Status

Altitude 493.2 km
Velocity 7.62 km/s
Sub-Earth Point -43.58°S, 40.96°E
Launch Date Jan 29, 2020
Age 6 years
Type internet

Technical Details

Classification Payload
Mass 260.00 kg
Dry Mass 248.00 kg
Total Mass 260.00 kg
Length 0.20 m
Diameter 2.80 m
Span 9.00 m
Shape Box + pan
Manufacturer SPXS
Bus Type Starlink
Phase Status In Orbit
Owner/State SPXS/US

Large Constellations

Loading constellations...